{"data":{"norad_id":64369,"intl_designator":"2025-126AB","name":"STARLINK-34444","alt_names":[],"object_type":"PAYLOAD","status":"ACTIVE","operator":null,"country":"US","launch_date":"2025-06-13","launch_site_code":"AFWTR","launch_vehicle":null,"mission":null,"orbit_class":"UNKNOWN","rcs_meters":null,"size_class":null,"mass_kg":null,"dimensions":null,"purposes":["comms"],"wikipedia_slug":null,"has_3d_model":false,"image_url":null,"decayed_at":null,"tle_current":{"epoch":"2026-09-20T23:28:20.805312Z","epoch_age_seconds":93141,"freshness":"FRESH","line1":"1 64369U 25126AB  26263.97801858  .00008084  00000+0  27806-3 0  9994","line2":"2 64369  70.0007 259.6911 0003609 272.6831  87.3931 15.30422458 69992","mean_motion":15.30422458,"eccentricity":0.0003609,"inclination_deg":70.0007,"raan_deg":259.6911,"arg_perigee_deg":272.6831,"mean_anomaly_deg":87.3931,"bstar":0.00027806,"rev_number":6999,"period_min":94.091666812171,"perigee_km":472.07779531447,"apogee_km":477.02406546262,"semimajor_km":6852.6879303885,"source":"CELESTRAK","updated_at":"2026-09-21T09:00:35.321330Z"}}}